Wind_Speed
23 21 19 17 15 13 11 10 9 9 11 11 9 8 8 9 10 10 10 10 11 11 11 11 11 11 12 12 12 12 12 11 11 11 10 10 10 9 8 7 6 6 5 5
26 23 20 19 18 17 15 13 11 11 12 11 10 9 7 8 9 9 10 10 10 10 10 10 10 11 11 11 11 11 11 11 12 11 9 9 9 8 7 6 5 5 5 5
26 23 23 22 21 21 19 17 15 13 12 12 13 11 9 8 10 8 9 10 9 9 9 8 9 10 10 10 10 10 10 10 11 10 9 8 7 7 6 5 5 5 5 4
28 26 25 24 24 23 21 19 18 16 15 15 14 11 9 10 9 9 9 9 9 8 7 7 7 8 9 10 10 10 9 9 9 9 8 8 7 7 6 5 5 5 5 4
29 28 27 26 25 24 22 20 20 18 17 15 15 14 12 12 12 11 9 9 8 8 7 7 6 7 8 9 9 9 9 9 8 7 7 7 7 7 6 5 5 5 5 5
29 29 29 27 26 26 23 22 22 22 20 17 16 16 14 12 12 11 9 10 9 9 7 7 6 6 6 7 8 8 9 9 8 7 7 6 6 6 6 5 5 5 5 5
30 30 29 29 28 27 26 25 25 25 23 19 17 17 14 12 12 11 11 11 10 10 8 7 7 6 6 7 7 8 8 8 8 7 7 6 6 6 6 6 6 6 6 5
30 30 30 29 29 27 27 27 26 25 22 20 19 18 15 13 14 14 13 12 11 10 9 7 7 7 7 7 7 7 8 8 8 8 8 7 8 7 7 7 7 7 7 7
30 30 30 30 29 27 27 27 26 25 23 22 21 19 17 16 16 15 14 13 12 12 11 9 9 9 8 8 8 8 8 8 8 8 9 9 9 9 8 9 8 8 8 8
29 30 30 30 29 28 27 27 27 26 24 24 22 20 19 18 15 14 13 13 14 14 12 11 11 10 10 9 9 8 8 8 9 9 9 9 10 10 10 10 10 10 10 10
30 30 30 31 31 29 29 29 29 28 26 25 23 22 21 20 18 17 15 15 16 15 14 12 11 11 10 10 9 9 9 9 10 10 10 10 10 10 11 11 12 12 12 12
30 30 31 32 30 29 29 29 30 30 28 27 26 24 22 21 19 17 17 17 17 15 14 12 12 12 11 10 10 11 10 10 11 11 11 11 11 11 11 12 12 13 13 13
30 31 32 32 31 30 30 29 30 30 30 29 28 25 22 20 19 17 18 19 17 16 14 13 11 13 12 11 12 13 11 11 12 12 12 12 12 12 12 13 13 13 13 13
31 32 33 33 31 31 31 31 30 31 31 30 29 27 24 22 20 19 19 19 17 16 14 13 13 14 14 14 14 13 12 13 13 13 13 13 13 14 14 14 14 14 15 15
32 33 33 33 32 31 32 31 31 32 31 31 29 28 26 24 23 22 21 20 19 16 15 15 14 14 14 15 15 14 14 14 14 14 14 14 13 14 14 15 16 16 16 16
33 34 34 34 33 32 31 30 30 30 31 31 30 28 26 26 26 25 23 22 20 17 16 17 17 17 17 17 17 16 16 15 15 15 14 14 14 14 15 16 16 17 17 17
33 34 34 34 34 33 33 31 30 30 30 30 31 30 28 28 27 26 25 24 22 20 19 19 19 18 18 18 18 18 17 17 17 16 15 15 15 16 17 17 17 18 18 18
34 34 35 35 35 37 34 32 31 30 30 30 30 30 29 29 27 27 27 26 23 22 21 21 21 21 20 20 19 19 19 18 18 18 17 17 18 18 19 18 19 19 19 18
36 34 34 35 37 38 36 34 32 31 30 30 31 30 30 29 29 28 28 26 25 24 23 23 22 22 21 21 21 21 21 20 19 19 19 19 19 19 19 19 20 20 20 19
36 35 35 35 37 38 35 34 34 32 32 31 30 30 30 30 30 29 27 26 26 26 25 24 24 23 23 23 22 22 22 22 21 21 20 20 19 19 20 20 20 20 20 20
36 35 35 35 36 36 35 35 34 34 32 30 30 29 29 30 30 29 28 28 26 26 26 25 24 24 24 24 23 23 23 23 22 22 22 21 21 21 21 21 21 21 21 21
36 36 36 35 36 36 34 35 36 34 32 31 30 30 29 29 29 28 28 28 27 26 26 24 24 24 23 23 23 23 23 23 23 22 22 22 22 22 22 21 22 22 22 22
36 36 36 36 36 34 35 34 33 33 33 31 30 30 29 29 30 29 29 29 28 27 26 25 24 24 24 24 23 23 23 23 22 22 22 22 22 22 22 22 23 23 23 23
36 35 35 35 35 35 35 35 34 33 32 31 30 30 29 29 29 30 30 30 29 27 26 26 25 25 25 24 24 24 24 24 23 23 22 22 22 23 23 23 23 23 24 24
35 35 34 34 34 34 35 34 33 32 32 31 31 31 30 30 29 29 29 29 28 27 26 25 25 25 25 25 24 24 24 24 24 23 23 23 23 23 24 24 24 24 24 25
34 34 34 34 33 33 34 35 34 32 32 31 31 30 29 29 29 29 29 29 28 27 27 26 26 25 25 25 25 24 24 24 24 24 23 23 23 23 23 24 24 24 24 24
Wind_Direction
218 218 216 213 211 210 204 208 230 248 264 273 294 311 324 346 353 4 14 17 20 23 26 31 33 34 34 32 34 36 37 39 43 47 50 53 54 57 59 58 59 62 62 66
220 220 217 213 212 214 209 212 227 239 255 266 278 288 302 318 332 354 8 9 12 16 17 25 26 29 30 30 29 32 34 37 39 41 46 48 48 51 53 54 60 64 60 56
223 220 218 216 214 215 215 216 220 234 246 259 268 269 282 298 314 330 355 358 1 4 7 13 17 22 24 25 26 27 30 33 35 34 38 42 44 43 47 51 53 51 44 37
223 219 219 218 217 218 218 219 223 230 240 251 260 261 270 281 293 313 330 338 344 352 356 358 6 14 17 20 22 22 23 25 28 29 32 35 35 33 35 38 36 30 29 27
222 219 219 219 219 219 219 221 226 231 236 244 250 258 262 274 286 300 309 322 328 336 342 342 352 4 8 11 15 17 17 16 17 18 20 23 25 25 23 23 21 18 17 15
222 220 220 220 220 220 220 222 224 228 233 235 243 254 257 273 286 292 297 303 310 320 330 332 336 346 349 351 358 3 3 5 7 9 9 9 9 7 7 5 359 357 351 349
221 220 219 219 219 218 219 221 222 225 229 233 239 248 259 270 274 281 285 290 297 309 316 322 324 328 331 333 341 348 350 351 354 358 359 356 351 349 348 347 348 346 339 329
221 220 219 219 218 218 219 222 225 228 228 235 240 247 257 266 267 269 275 285 293 302 303 308 307 314 319 320 327 333 338 341 343 345 345 343 339 338 336 334 336 335 332 324
221 219 218 219 219 219 219 222 225 230 234 236 239 247 253 259 265 266 269 274 287 297 296 293 295 300 301 300 306 315 321 326 329 329 331 332 334 335 334 329 324 321 320 317
220 219 218 220 222 222 221 222 224 228 232 234 238 245 251 257 260 261 262 272 282 290 292 286 288 289 290 289 292 297 304 311 317 318 318 322 327 330 328 324 317 314 311 306
218 220 218 219 221 223 222 222 225 229 232 235 239 242 248 256 259 257 262 270 278 281 284 285 283 283 282 281 283 286 291 300 306 308 311 315 319 321 321 320 316 309 307 304
216 218 218 220 222 224 224 225 227 229 231 234 240 243 247 253 257 258 258 265 271 272 277 279 279 273 274 275 282 284 284 291 298 302 305 305 307 312 316 317 313 309 304 300
214 216 216 217 219 222 223 223 226 228 230 235 239 242 244 249 256 261 258 263 269 270 275 275 274 277 275 273 277 278 280 287 292 295 297 297 299 303 306 308 308 308 305 301
215 217 217 218 221 222 223 224 225 228 230 234 238 241 241 245 251 256 260 266 271 276 281 278 279 278 276 274 274 278 283 286 290 291 292 293 295 297 299 300 302 302 301 299
215 216 216 218 220 223 225 225 227 229 232 235 237 239 240 244 249 253 261 267 269 270 276 281 285 282 277 277 279 280 283 286 289 289 290 292 294 297 298 300 300 299 298 298
217 218 217 218 220 222 225 226 228 230 230 233 235 238 240 243 247 252 258 263 264 264 269 275 279 281 280 280 280 280 280 283 291 292 291 290 291 294 297 298 298 299 297 295
218 218 218 217 219 221 224 225 228 230 230 234 236 238 240 244 247 250 257 262 265 266 269 273 277 276 278 280 280 281 281 284 288 291 290 292 292 292 294 295 296 296 295 293
222 221 220 219 218 222 224 224 228 231 231 234 237 238 240 244 248 250 255 259 263 268 271 273 275 276 278 278 277 277 278 281 284 287 288 289 291 292 294 295 295 295 295 294
224 224 222 221 222 224 224 225 227 229 231 232 236 239 240 244 249 251 254 257 262 265 268 270 272 274 275 276 276 276 279 281 284 287 290 293 292 291 294 295 294 294 296 296
224 225 225 223 223 224 225 227 230 232 232 232 235 238 241 243 247 252 255 259 263 263 267 270 270 272 273 274 275 276 277 279 281 283 286 289 292 293 295 296 296 297 297 295
224 225 225 225 225 226 225 228 231 233 235 236 238 239 242 244 248 252 254 257 260 261 265 267 268 271 272 273 275 277 278 278 278 281 284 287 288 292 294 295 295 295 295 295
225 226 226 227 227 227 227 228 231 234 237 237 238 240 242 243 247 251 254 256 258 262 265 267 269 269 271 273 274 276 277 278 278 280 283 286 288 290 293 294 296 295 295 295
226 227 228 229 229 228 227 229 232 234 236 237 238 239 241 244 247 250 253 255 258 264 264 266 269 270 272 273 275 277 278 280 281 283 284 285 287 289 290 291 293 293 293 293
226 227 228 229 229 227 228 229 231 233 236 238 239 241 242 244 248 251 253 255 257 261 262 263 266 269 270 272 275 277 278 280 281 283 283 284 286 287 288 290 291 291 291 292
227 227 230 231 229 228 228 229 232 234 237 239 240 240 241 244 247 249 251 253 255 256 258 260 264 267 270 272 274 276 278 279 280 280 281 282 284 287 289 290 291 290 290 291
226 229 231 232 231 230 229 231 233 236 238 238 238 241 242 244 245 249 251 252 254 255 257 261 264 267 270 272 275 277 278 279 279 280 281 283 286 287 290 290 290 290 290 291
Height
5918 5922 5924 5927 5929 5931 5932 5932 5933 5933 5933 5934 5935 5935 5934 5934 5934 5933 5932 5931 5930 5929 5927 5926 5924 5922 5921 5919 5917 5916 5914 5912 5910 5909 5908 5907 5906 5906 5905 5904 5903 5903 5902 5901
5914 5918 5922 5924 5926 5928 5929 5930 5931 5932 5933 5933 5933 5934 5933 5933 5933 5933 5932 5931 5930 5929 5928 5927 5925 5924 5922 5920 5918 5917 5915 5913 5912 5910 5909 5908 5907 5907 5906 5905 5904 5903 5903 5902
5909 5915 5917 5919 5922 5924 5926 5928 5929 5930 5931 5931 5932 5932 5932 5932 5932 5932 5932 5931 5931 5930 5929 5928 5926 5924 5923 5921 5920 5918 5916 5915 5913 5912 5911 5909 5908 5908 5907 5906 5905 5904 5903 5902
5904 5909 5911 5914 5918 5920 5923 5925 5926 5927 5928 5929 5930 5930 5930 5929 5930 5930 5930 5931 5930 5929 5929 5928 5927 5925 5924 5922 5921 5919 5917 5916 5915 5913 5912 5911 5909 5908 5907 5906 5906 5905 5903 5902
5898 5903 5906 5910 5914 5917 5920 5922 5923 5924 5925 5927 5927 5928 5929 5928 5928 5928 5929 5929 5929 5929 5928 5928 5927 5925 5924 5923 5921 5920 5918 5917 5915 5914 5913 5911 5910 5909 5908 5907 5906 5905 5904 5902
5893 5897 5901 5906 5910 5913 5916 5918 5919 5919 5921 5923 5925 5925 5926 5927 5927 5926 5927 5927 5927 5928 5928 5927 5926 5925 5924 5923 5922 5920 5919 5917 5915 5914 5913 5911 5910 5909 5908 5907 5906 5904 5903 5902
5887 5891 5896 5900 5904 5907 5910 5913 5915 5916 5917 5919 5921 5921 5924 5924 5925 5925 5924 5925 5925 5926 5926 5925 5925 5924 5923 5923 5922 5920 5919 5917 5915 5914 5912 5911 5910 5909 5907 5906 5905 5904 5902 5901
5881 5886 5890 5894 5898 5902 5905 5908 5911 5913 5914 5917 5918 5918 5921 5921 5922 5922 5922 5923 5923 5924 5924 5923 5923 5923 5922 5921 5920 5919 5918 5916 5915 5913 5912 5911 5909 5908 5906 5905 5904 5902 5901 5900
5875 5881 5886 5889 5893 5897 5900 5903 5906 5909 5911 5912 5914 5915 5917 5917 5918 5919 5919 5920 5921 5921 5921 5921 5921 5921 5920 5920 5919 5918 5916 5915 5914 5912 5911 5909 5908 5906 5905 5904 5902 5901 5900 5898
5869 5875 5880 5884 5888 5891 5896 5899 5901 5904 5906 5907 5910 5911 5913 5914 5915 5916 5916 5917 5918 5918 5918 5918 5918 5919 5918 5918 5917 5916 5914 5913 5912 5911 5909 5908 5907 5905 5903 5902 5900 5899 5898 5896
5863 5868 5873 5877 5881 5886 5890 5893 5895 5899 5901 5904 5905 5909 5909 5910 5911 5911 5912 5913 5914 5915 5915 5915 5915 5915 5915 5915 5914 5913 5912 5911 5910 5909 5907 5906 5905 5903 5901 5900 5898 5896 5895 5893
5858 5862 5867 5872 5877 5881 5884 5888 5891 5894 5897 5899 5901 5906 5905 5905 5905 5906 5908 5910 5910 5911 5911 5911 5911 5911 5911 5911 5911 5910 5909 5909 5908 5906 5905 5903 5902 5900 5899 5897 5895 5894 5892 5891
5852 5856 5861 5866 5872 5875 5878 5881 5885 5888 5891 5893 5896 5901 5901 5901 5901 5902 5903 5904 5906 5906 5907 5907 5907 5907 5907 5907 5907 5905 5905 5905 5904 5903 5902 5901 5899 5898 5896 5894 5893 5891 5889 5888
5847 5851 5856 5861 5865 5869 5872 5876 5879 5882 5885 5888 5891 5894 5896 5897 5898 5899 5899 5901 5902 5902 5903 5902 5902 5902 5902 5903 5903 5902 5901 5901 5900 5899 5898 5897 5896 5894 5892 5891 5889 5887 5886 5884
5840 5845 5850 5855 5859 5862 5866 5870 5873 5876 5880 5883 5886 5888 5891 5893 5894 5895 5895 5896 5897 5898 5899 5898 5898 5898 5898 5898 5898 5898 5898 5898 5897 5896 5894 5893 5891 5890 5888 5887 5885 5883 5881 5880
5834 5839 5844 5849 5853 5856 5860 5864 5868 5871 5874 5877 5880 5883 5886 5888 5889 5890 5891 5892 5892 5893 5894 5894 5894 5894 5894 5894 5894 5894 5895 5893 5893 5892 5891 5888 5887 5886 5884 5883 5881 5879 5877 5875
5829 5834 5838 5843 5847 5850 5854 5859 5862 5865 5868 5871 5874 5878 5880 5882 5884 5885 5886 5887 5888 5888 5890 5890 5890 5890 5890 5890 5890 5890 5890 5889 5889 5888 5886 5885 5882 5881 5880 5879 5877 5874 5872 5871
5823 5827 5832 5836 5841 5844 5851 5854 5856 5860 5863 5866 5868 5871 5874 5876 5878 5880 5881 5882 5882 5883 5884 5885 5886 5886 5886 5885 5885 5885 5885 5884 5884 5883 5881 5880 5878 5877 5875 5873 5872 5870 5868 5866
5817 5821 5825 5830 5833 5837 5843 5847 5850 5853 5856 5859 5862 5865 5868 5870 5872 5874 5875 5877 5878 5879 5879 5880 5881 5881 5881 5880 5880 5880 5880 5879 5878 5877 5876 5875 5873 5872 5870 5868 5866 5865 5862 5860
5810 5814 5819 5823 5826 5831 5838 5841 5843 5848 5849 5853 5856 5858 5861 5864 5866 5869 5870 5872 5872 5873 5873 5874 5874 5875 5875 5875 5875 5874 5874 5874 5873 5872 5871 5869 5868 5867 5865 5863 5861 5859 5857 5855
5803 5807 5811 5816 5819 5824 5831 5833 5836 5841 5844 5847 5850 5852 5855 5858 5861 5863 5864 5865 5866 5867 5868 5868 5868 5868 5868 5869 5869 5868 5868 5867 5866 5865 5865 5863 5862 5861 5859 5857 5855 5854 5852 5850
5796 5800 5804 5808 5812 5819 5823 5826 5830 5833 5837 5840 5843 5846 5849 5852 5854 5856 5857 5858 5859 5860 5861 5862 5862 5862 5862 5863 5863 5862 5861 5861 5860 5859 5858 5858 5856 5855 5853 5851 5850 5848 5846 5844
5788 5794 5797 5802 5807 5812 5815 5818 5822 5826 5829 5833 5836 5839 5842 5844 5847 5848 5850 5851 5853 5854 5855 5855 5856 5856 5856 5856 5856 5856 5855 5854 5853 5853 5852 5851 5850 5848 5847 5845 5844 5842 5840 5838
5781 5786 5789 5793 5798 5804 5807 5811 5814 5818 5822 5826 5829 5832 5835 5837 5839 5841 5843 5845 5846 5847 5848 5849 5849 5850 5850 5850 5850 5849 5849 5848 5847 5846 5846 5844 5843 5842 5840 5839 5837 5835 5833 5831
5774 5778 5782 5786 5791 5796 5800 5804 5808 5812 5815 5818 5821 5824 5827 5830 5831 5833 5835 5837 5839 5840 5841 5842 5843 5843 5843 5843 5843 5842 5842 5841 5841 5840 5839 5838 5837 5835 5833 5832 5830 5828 5826 5825
5768 5772 5776 5779 5784 5789 5793 5797 5801 5805 5807 5810 5813 5816 5819 5822 5824 5826 5828 5830 5831 5833 5834 5835 5836 5836 5836 5836 5836 5836 5835 5834 5834 5833 5832 5831 5830 5828 5826 5825 5823 5821 5819 5817